Location: Luxembourg
(49.6117°N, 6.1300°E)
Time: 05:45:33
(UTC+02:00)

OTV 5 (USA 277) - Visible Passes

Search period start: 26 April 2019 00:00
Search period end: 06 May 2019 00:00
Orbit: 309 x 326 km, 54.5° (Epoch: 21 April)

Date Brightness Start Highest point End Pass type
(mag) Time Alt. Az. Time Alt. Az. Time Alt. Az.
26 Apr ? 22:06:06 10° WSW 22:08:49 76° NNW 22:11:33 10° ENE visible
26 Apr ? 23:41:00 10° WNW 23:43:08 27° NNW 23:43:08 27° NNW visible
27 Apr ? 22:20:59 10° W 22:23:38 43° NNW 22:26:15 10° NE visible
27 Apr ? 23:55:58 10° WNW 23:57:40 24° NNW 23:57:40 24° NNW visible
28 Apr ? 22:36:00 10° WNW 22:38:30 31° N 22:40:59 10° NE visible
29 Apr ? 00:10:48 10° NW 00:11:59 20° NW 00:11:59 20° NW visible
29 Apr ? 22:51:00 10° WNW 22:53:25 27° N 22:55:17 14° NE visible
30 Apr ? 00:25:32 10° NW 00:26:11 15° NW 00:26:11 15° NW visible
30 Apr ? 21:30:59 10° W 21:33:34 35° NNW 21:36:07 10° NE visible
30 Apr ? 23:05:54 10° WNW 23:08:20 28° N 23:09:24 21° NE visible
01 May ? 00:40:14 10° WNW 00:40:17 10° WNW 00:40:17 10° WNW visible
01 May ? 21:46:01 10° WNW 21:48:27 28° N 21:50:54 10° ENE visible
01 May ? 23:20:40 10° NW 23:23:14 35° NNE 23:23:28 35° NNE visible
02 May ? 22:00:58 10° WNW 22:03:22 27° N 22:05:47 10° ENE visible
02 May ? 23:35:22 10° WNW 23:37:31 44° NNW 23:37:31 44° NNW visible
03 May ? 22:15:47 10° NW 22:18:17 31° N 22:20:40 11° ENE visible
03 May ? 23:50:05 10° WNW 23:51:33 28° WNW 23:51:33 28° WNW visible
04 May ? 22:30:30 10° WNW 22:33:09 43° NNE 22:34:42 20° E visible
05 May ? 00:04:57 10° WNW 00:05:34 15° W 00:05:34 15° W visible
05 May ? 22:45:12 10° WNW 22:47:56 78° NNE 22:48:43 41° ESE visible
